Location: Aulagny
(45.1643°N, 4.3096°E)
Time: 00:30:50
(UTC+00:00)

Cosmos 1864 Rocket - Pass Details

Date: 21 October 2019
Orbit: 951 x 997 km, 82.9° (Epoch: 13 November)

Event Time Altitude Azimuth Distance (km) Brightness Sun altitude
Rises 19:10:08 0° 353° (N) 3,641 7.7 -25.7°
Reaches altitude 10° 19:12:39 10° 355° (N) 2,695 7.0 -26.1°
Maximum altitude 19:18:49 73° 80° (E) 1,007 4.3 -27.2°
Enters shadow 19:18:59 72° 94° (E) 1,010 4.3 -27.2°
